Afton Municipal Airport, WY

10:09 AM MST on December 12, 2019 (GMT -0700)
Afton Municipal

Weather History for KAFO - August, 2019

Change the Weather History Date:

Tuesday, August 6, 2019

  Actual Average Record
Temperature  
Mean Temperature 64 °F -  
Max Temperature 86 °F 82 °F 86 °F (2019)
Min Temperature 41 °F 42 °F 35 °F (2015)
Degree Days  
Heating Degree Days 2    
Growing Degree Days 14 (Base 50)    
Moisture  
Dew Point 43 °F    
Average Humidity 56    
Maximum Humidity 93    
Minimum Humidity 23    
Precipitation  
Precipitation 0.00 in - - ()
Sea Level Pressure  
Sea Level Pressure 30.21 in    
Wind  
Wind Speed 3 mph (WNW)    
Max Wind Speed 16 mph    
Max Gust Speed 23 mph    
Visibility 10 miles    
Events Rain    
Averages and records for this station are not official NWS values.
T = Trace of Precipitation, MM = Missing Value Source: NWS Daily Summary

Daily Weather History Graph

Daily Weather History Graph

Search for Another Location

Airport or City:

Astronomy

Aug. 06, 2019 Rise Set
Actual Time 6:20 AM MDT 8:38 PM MDT
Civil Twilight 5:48 AM MDT 9:09 PM MDT
Nautical Twilight 5:10 AM MDT 9:48 PM MDT
Astronomical Twilight 4:26 AM MDT 10:31 PM MDT
Moon 12:58 PM MDT (8/6) No Moon Set
Length of Visible Light 15h 20m
Length of Day
14h 17m
Waxing Crescent, 39% of the Moon is Illuminated
Aug 6
Waxing Crescent
Aug 7
First Quarter
Aug 15
Full
Aug 23
Last Quarter
Aug 30
New

Hourly Weather History & Observations

Time (MDT) Temp. Windchill Dew Point Humidity Pressure Visibility Wind Dir Wind Speed Gust Speed Precip Events Conditions
12:10 AM 48.2 °F - 42.8 °F 82% 30.25 in 10.0 mi SSW 6.9 mph - N/A   Clear
12:35 AM 50.0 °F - 41.0 °F 71% 30.25 in 10.0 mi SSE 3.5 mph - N/A   Clear
12:55 AM 50.0 °F - 39.2 °F 66% 30.25 in 10.0 mi SSE 4.6 mph - N/A   Clear
1:15 AM 48.2 °F - 39.2 °F 71% 30.25 in 10.0 mi SSE 4.6 mph - N/A   Clear
1:35 AM 50.0 °F - 39.2 °F 66% 30.25 in 10.0 mi Calm Calm - N/A   Clear
1:55 AM 48.2 °F - 39.2 °F 71% 30.25 in 10.0 mi South 3.5 mph - N/A   Clear
2:15 AM 46.4 °F 45.2 °F 41.0 °F 81% 30.25 in 10.0 mi South 3.5 mph - N/A   Clear
2:35 AM 46.4 °F - 41.0 °F 81% 30.25 in 10.0 mi Calm Calm - N/A   Clear
2:55 AM 46.4 °F - 39.2 °F 76% 30.25 in 10.0 mi Calm Calm - N/A   Clear
3:15 AM 44.6 °F - 39.2 °F 81% 30.24 in 10.0 mi Calm Calm - N/A   Clear
3:35 AM 42.8 °F 41.1 °F 39.2 °F 87% 30.25 in 10.0 mi SE 3.5 mph - N/A   Clear
3:55 AM 42.8 °F 40.1 °F 39.2 °F 87% 30.25 in 10.0 mi SSW 4.6 mph - N/A   Clear
4:15 AM 44.6 °F - 37.4 °F 76% 30.25 in 10.0 mi Calm Calm - N/A   Clear
4:35 AM 41.0 °F - 37.4 °F 87% 30.25 in 10.0 mi Calm Calm - N/A   Clear
4:55 AM 42.8 °F - 37.4 °F 81% 30.25 in 10.0 mi Calm Calm - N/A   Clear
5:15 AM 42.8 °F - 37.4 °F 81% 30.26 in 10.0 mi Calm Calm - N/A   Clear
5:35 AM 42.8 °F - 37.4 °F 81% 30.26 in 10.0 mi Calm Calm - N/A   Clear
5:55 AM 42.8 °F - 37.4 °F 81% 30.26 in 10.0 mi Calm Calm - N/A   Clear
6:15 AM 42.8 °F - 37.4 °F 81% 30.26 in 10.0 mi Calm Calm - N/A   Clear
6:35 AM 42.8 °F - 37.4 °F 81% 30.27 in 10.0 mi Calm Calm - N/A   Clear
6:55 AM 42.8 °F - 37.4 °F 81% 30.27 in 10.0 mi Calm Calm - N/A   Clear
7:15 AM 41.0 °F - 39.2 °F 93% 30.28 in 10.0 mi Calm Calm - N/A   Clear
7:35 AM 44.6 °F - 41.0 °F 87% 30.28 in 10.0 mi Calm Calm - N/A   Clear
7:55 AM 46.4 °F - 42.8 °F 87% 30.27 in 10.0 mi Calm Calm - N/A   Clear
8:15 AM 50.0 °F - 42.8 °F 76% 30.27 in 10.0 mi South 3.5 mph - N/A   Clear
8:35 AM 51.8 °F - 42.8 °F 71% 30.27 in 10.0 mi Calm Calm - N/A   Clear
8:55 AM 55.4 °F - 42.8 °F 63% 30.27 in 10.0 mi Calm Calm - N/A   Clear
9:15 AM 57.2 °F - 42.8 °F 59% 30.27 in 10.0 mi Calm Calm - N/A   Clear
9:35 AM 59.0 °F - 42.8 °F 55% 30.26 in 10.0 mi Calm Calm - N/A   Clear
9:55 AM 60.8 °F - 42.8 °F 52% 30.26 in 10.0 mi Calm Calm - N/A   Clear
10:15 AM 64.4 °F - 44.6 °F 49% 30.25 in 10.0 mi Calm Calm - N/A   Clear
10:35 AM 66.2 °F - 44.6 °F 46% 30.25 in 10.0 mi Calm Calm - N/A   Clear
10:55 AM 68.0 °F - 44.6 °F 43% 30.25 in 10.0 mi Calm Calm - N/A   Clear
11:15 AM 68.0 °F - 48.2 °F 49% 30.25 in 10.0 mi NW 4.6 mph - N/A   Clear
11:35 AM 69.8 °F - 50.0 °F 49% 30.24 in 10.0 mi NW 4.6 mph - N/A   Clear
11:55 AM 71.6 °F - 48.2 °F 43% 30.23 in 10.0 mi North 4.6 mph - N/A   Clear
12:15 PM 73.4 °F - 46.4 °F 38% 30.22 in 10.0 mi NNW 5.8 mph - N/A   Clear
12:35 PM 77.0 °F - 50.0 °F 39% 30.22 in 10.0 mi WNW 3.5 mph - N/A   Clear
12:55 PM 78.8 °F - 48.2 °F 34% 30.21 in 10.0 mi Calm Calm - N/A   Clear
1:15 PM 82.4 °F - 48.2 °F 30% 30.19 in 10.0 mi Calm Calm - N/A   Clear
1:35 PM 86.0 °F - 50.0 °F 29% 30.19 in 10.0 mi Calm Calm - N/A   Clear
1:55 PM 86.0 °F - 44.6 °F 23% 30.18 in 10.0 mi Calm Calm - N/A   Clear
2:15 PM 86.0 °F - 50.0 °F 29% 30.17 in 10.0 mi NNW 4.6 mph - N/A   Clear
2:35 PM 86.0 °F - 48.2 °F 27% 30.16 in 10.0 mi NNW 6.9 mph - N/A   Clear
2:55 PM 82.4 °F - 50.0 °F 32% 30.16 in 10.0 mi NW 6.9 mph - N/A   Scattered Clouds
3:35 PM 78.8 °F - 48.2 °F 34% 30.14 in 10.0 mi North 6.9 mph - N/A   Scattered Clouds
3:55 PM 80.6 °F - 46.4 °F 30% 30.13 in 10.0 mi North 3.5 mph - N/A   Scattered Clouds
4:15 PM 84.2 °F - 46.4 °F 27% 30.13 in 10.0 mi NW 3.5 mph - N/A   Clear
4:35 PM 80.6 °F - 48.2 °F 32% 30.13 in 10.0 mi NNW 6.9 mph - N/A   Clear
4:55 PM 78.8 °F - 50.0 °F 36% 30.12 in 10.0 mi North 3.5 mph - N/A   Scattered Clouds
5:15 PM 78.8 °F - 50.0 °F 36% 30.12 in 10.0 mi North 4.6 mph - N/A   Clear
5:35 PM 78.8 °F - 46.4 °F 32% 30.12 in 10.0 mi NNW 4.6 mph - N/A   Clear
5:55 PM 75.2 °F - 53.6 °F 47% 30.12 in 10.0 mi NW 6.9 mph - N/A   Clear
6:15 PM 71.6 °F - 53.6 °F 53% 30.13 in 10.0 mi NNW 6.9 mph - N/A   Clear
6:35 PM 71.6 °F - 50.0 °F 46% 30.15 in 10.0 mi NW 16.1 mph 19.6 mph N/A   Clear
6:55 PM 71.6 °F - 44.6 °F 38% 30.18 in 10.0 mi WNW 5.8 mph 21.9 mph N/A Rain Light Rain
7:15 PM 71.6 °F - 42.8 °F 35% 30.18 in 10.0 mi NNE 11.5 mph 17.3 mph N/A   Mostly Cloudy
7:35 PM 75.2 °F - 39.2 °F 27% 30.16 in 10.0 mi East 11.5 mph 23.0 mph N/A   Mostly Cloudy
7:55 PM 78.8 °F - 39.2 °F 24% 30.13 in 10.0 mi SW 5.8 mph 15.0 mph N/A   Scattered Clouds
8:15 PM 73.4 °F - 42.8 °F 33% 30.14 in 10.0 mi Calm Calm - N/A   Clear
8:35 PM 64.4 °F - 46.4 °F 52% 30.15 in 10.0 mi Calm Calm - N/A   Clear
8:55 PM 69.8 °F - 41.0 °F 35% 30.15 in 10.0 mi Calm Calm - N/A   Clear
9:15 PM 64.4 °F - 42.8 °F 45% 30.16 in 10.0 mi Calm Calm - N/A   Clear
9:35 PM 59.0 °F - 44.6 °F 59% 30.16 in 10.0 mi SSE 3.5 mph - N/A   Clear
9:55 PM 60.8 °F - 41.0 °F 48% 30.16 in 10.0 mi North - - N/A   Clear
10:15 PM 59.0 °F - 41.0 °F 51% 30.16 in 10.0 mi SE 3.5 mph - N/A   Clear
10:35 PM 59.0 °F - 42.8 °F 55% 30.18 in 10.0 mi SSW 4.6 mph - N/A   Clear
10:55 PM 59.0 °F - 42.8 °F 55% 30.18 in 10.0 mi East 3.5 mph - N/A   Clear
11:15 PM 57.2 °F - 42.8 °F 59% 30.18 in 10.0 mi Calm Calm - N/A   Clear
11:35 PM 51.8 °F - 44.6 °F 76% 30.18 in 10.0 mi SSW 4.6 mph - N/A   Scattered Clouds
11:55 PM 55.4 °F - 44.6 °F 67% 30.18 in 10.0 mi SSE 3.5 mph - N/A   Scattered Clouds